Location: Carrières
(48.9495°N, 2.0407°E)
Time: 18:07:00
(UTC+00:00)

Cosmos 1606 Rocket - Pass Details

Date: 26 June 2024
Orbit: 599 x 628 km, 82.5° (Epoch: 15 July)

Event Time Altitude Azimuth Distance (km) Brightness Sun altitude
Rises 01:53:31 0° 340° (NNW) 2,911 7.7 -13.0°
Reaches altitude 10° 01:56:03 10° 327° (NNW) 1,995 6.6 -12.8°
Maximum altitude 01:59:39 25° 272° (W) 1,249 4.9 -12.5°
Enters shadow 02:01:54 17° 230° (SW) 1,574 5.1 -12.3°
